Location: Courcelles
(49.2596°N, 1.7419°E)
Time: 06:03:13
(UTC+00:00)

Okean 1 Rocket - Pass Details

Date: 17 November 2025
Orbit: 599 x 628 km, 82.5° (Epoch: 10 December)

Event Time Altitude Azimuth Distance (km) Brightness Sun altitude
Rises 17:45:20 0° 162° (SSE) 2,890 6.4 -15.6°
Reaches altitude 10° 17:47:44 10° 152° (SSE) 1,985 5.5 -15.9°
Maximum altitude 17:51:36 31° 90° (E) 1,090 3.7 -16.6°
Enters shadow 17:51:42 31° 87° (E) 1,091 3.7 -16.6°
